Home   Weather   Pointe-à-Pitre   Past weeks

Flag for Guadeloupe Past Weather in Pointe-à-Pitre, Guadeloupe — Yesterday and Last 2 Weeks

Now
70 °F

Sunny.


Feels Like: 70 °F
Forecast: 62 / 81 °F
Wind: No wind

Location: Le Raizet - Guadeloupe

Current Time: Jan 22, 2017 at 8:41:23 am

Latest Report: Jan 22, 2017 at 8:00 am


Visibility: 10 mi

Pressure: 29.98 "Hg

Humidity: 88%

Dew Point: 66 °F

Location of Pointe-à-PitreLocation

Past Weather in Pointe-à-Pitre — Graph

°F

Pointe-à-Pitre Temperature Yesterday

Maximum temperature yesterday: 82 °F (at 3:00 pm)
Minimum temperature yesterday: 63 °F (at 2:30 am)
Average temperature yesterday: 71 °F

High & Low Weather Summary for the Past Weeks

 TemperatureHumidityPressure
High84 °F (Jan 8, 1:00 pm)100% (Jan 7, 10:30 pm)30.09 "Hg (Jan 7, 10:30 pm)
Low61 °F (Jan 22, 4:30 am)40% (Jan 20, 11:30 am)29.89 "Hg (Jan 10, 2:00 pm)
Average74 °F79%29.98 "Hg
* Reported Jan 7 7:00 am — Jan 22 7:30 am, Pointe-à-Pitre, Weather by CustomWeather, © 2017

Note: Actual official high and low records may vary slightly from our data, if they occured in-between our weather recording intervals... More about our weather records

Advertising

Pointe-à-Pitre Weather History for the Previous 24 Hours

Scroll right to see more
 ConditionsComfort  
Time TempWeatherWind HumidityBarometerVisibility
7:30 am
Sun, Jan 22
64 °FSunny.2 mph100%29.98 "Hg10 mi
7:00 am61 °FSunny.2 mph100%29.98 "Hg10 mi
6:30 am61 °FClear.No wind94%29.95 "Hg10 mi
6:00 am61 °FClear.2 mph100%29.95 "Hg10 mi
5:30 am61 °FClear.2 mph100%29.95 "Hg10 mi
5:00 am61 °FClear.1 mph100%29.95 "Hg10 mi
4:30 am61 °FClear.2 mph100%29.92 "Hg10 mi
4:00 am63 °FClear.2 mph94%29.92 "Hg10 mi
3:30 am63 °FClear.1 mph94%29.92 "Hg10 mi
3:00 am63 °FClear.3 mph94%29.92 "Hg10 mi
2:30 am64 °FClear.2 mph94%29.95 "Hg10 mi
2:00 am63 °FClear.1 mph100%29.95 "Hg6 mi
1:30 am63 °FClear.No wind100%29.95 "Hg6 mi
1:00 am64 °FClear.2 mph94%29.98 "Hg10 mi
12:30 am64 °FClear.2 mph94%29.98 "Hg10 mi
12:00 am64 °FClear.No wind94%29.98 "Hg6 mi
11:30 pm
Sat, Jan 21
64 °FClear.3 mph94%29.98 "Hg10 mi
11:00 pm64 °FClear.3 mph100%29.98 "Hg10 mi
10:30 pm64 °FClear.2 mph94%29.98 "Hg10 mi
10:00 pm66 °FClear.No wind94%29.98 "Hg10 mi
9:30 pm66 °FClear.2 mph94%29.98 "Hg10 mi
9:00 pm68 °FClear.No wind88%29.98 "Hg10 mi
8:30 pm68 °FClear.2 mph88%29.98 "Hg10 mi
8:00 pm70 °FClear.2 mph83%29.95 "Hg10 mi
7:30 pm70 °FClear.2 mph83%29.95 "Hg10 mi
7:00 pm72 °FPassing clouds.1 mph78%29.95 "HgN/A
6:30 pm73 °FPassing clouds.3 mph74%29.95 "HgN/A
6:00 pm75 °FClear.5 mph69%29.95 "Hg10 mi
5:30 pm77 °FPartly sunny.6 mph65%29.92 "HgN/A
5:00 pm79 °FOvercast.6 mph58%29.92 "HgN/A
4:30 pm79 °FMostly cloudy.6 mph61%29.92 "HgN/A
4:00 pm79 °FPartly sunny.8 mph61%29.92 "HgN/A
3:30 pm81 °FScattered clouds.8 mph58%29.92 "HgN/A
3:00 pm82 °FMostly cloudy.6 mph62%29.92 "HgN/A
2:30 pm81 °FOvercast.6 mph58%29.92 "HgN/A
2:00 pm81 °FPartly sunny.2 mph58%29.92 "HgN/A
1:30 pm81 °FPartly sunny.2 mph58%29.95 "HgN/A
1:00 pm81 °FPartly sunny.5 mph62%29.95 "HgN/A
12:30 pm79 °FOvercast.6 mph65%29.98 "HgN/A
12:00 pm79 °FMostly cloudy.3 mph65%29.98 "HgN/A
11:30 am79 °FPartly sunny.3 mph65%30.01 "HgN/A
11:00 am81 °FScattered clouds.5 mph54%30.01 "HgN/A
10:30 am81 °FPartly sunny.3 mph62%30.01 "HgN/A
10:00 am81 °FPartly sunny.5 mph58%30.01 "HgN/A
9:30 am81 °FPassing clouds.3 mph62%30.01 "HgN/A
9:00 am79 °FPassing clouds.1 mph70%30.01 "HgN/A
8:30 am73 °FSunny.1 mph83%30.01 "Hg10 mi
8:00 am70 °FSunny.No wind94%30.01 "Hg10 mi
Weather by CustomWeather, © 2017

See weather overviewHow to use our weather pages